EW0920 Weather Reports


time (UTC)temp
F
wind
direction
speed
knots
gust
knots
rain 1hr
in
rain 24hr
in
rain mn
in
humidity
%
barometer
mb
20260504233456 69 21 0.9 0.9 0.00 0.00 0.00 63 1009.5
20260504232954 70 349 0.0 0.0 0.00 0.00 0.00 64 1009.4
20260504232451 70 16 0.0 0.9 0.00 0.00 0.00 61 1009.5
20260504231948 71 13 0.0 0.9 0.00 0.00 0.00 61 1009.5
20260504231444 71 16 0.0 0.9 0.00 0.00 0.00 58 1009.6
20260504230941 72 345 0.0 5.2 0.00 0.00 0.00 55 1009.7
20260504230437 72 359 0.9 1.7 0.00 0.00 0.00 55 1009.8
20260504225937 72 352 0.0 1.7 0.00 0.00 0.00 54 1009.9
20260504225433 72 20 1.7 2.6 0.00 0.00 0.00 54 1009.9
20260504224930 73 75 0.9 1.7 0.00 0.00 0.00 54 1010.0
20260504224427 73 22 0.0 0.9 0.00 0.00 0.00 54 1009.8
20260504223924 72 32 2.6 3.5 0.00 0.00 0.00 54 1010.1
20260504223419 72 11 0.0 0.9 0.00 0.00 0.00 55 1010.1
20260504222915 72 47 0.0 1.7 0.00 0.00 0.00 55 1010.3
20260504222413 72 6 0.0 0.9 0.00 0.00 0.00 55 1010.2
20260504221911 72 350 1.7 1.7 0.00 0.00 0.00 54 1010.3
20260504221408 73 12 0.0 0.0 0.00 0.00 0.00 55 1010.4
20260504220905 73 352 1.7 3.5 0.00 0.00 0.00 54 1010.2
20260504220401 73 313 0.0 1.7 0.00 0.00 0.00 54 1010.4
20260504215859 73 65 0.9 2.6 0.00 0.00 0.00 54 1010.5
20260504215355 73 223 0.9 5.2 0.00 0.00 0.00 53 1010.5
20260504214851 74 11 0.0 1.7 0.00 0.00 0.00 52 1010.4
20260504214348 74 330 0.0 1.7 0.00 0.00 0.00 52 1010.6
20260504213845 73 353 0.9 1.7 0.00 0.00 0.00 52 1010.6
20260504213340 71 224 0.0 0.9 0.00 0.00 0.00 57 1010.6
20260504212838 71 18 0.9 1.7 0.00 0.00 0.00 54 1010.8
20260504212334 72 84 1.7 1.7 0.00 0.00 0.00 54 1010.6
20260504211832 72 67 0.9 3.5 0.00 0.00 0.00 55 1011.0
20260504211328 72 2 0.9 1.7 0.00 0.00 0.00 54 1010.9
20260504210826 72 68 0.0 1.7 0.00 0.00 0.00 56 1010.8
20260504210323 72 167 2.6 3.5 0.00 0.00 0.00 55 1010.7
20260504205820 72 27 0.9 1.7 0.00 0.00 0.00 56 1011.0
20260504205318 72 34 0.0 1.7 0.00 0.00 0.00 54 1010.9
20260504204816 72 335 0.0 2.6 0.00 0.00 0.00 55 1011.1
20260504204314 71 26 0.9 2.6 0.00 0.00 0.00 55 1011.0
20260504203813 71 31 0.9 1.7 0.00 0.00 0.00 55 1010.9
20260504203309 71 347 0.0 2.6 0.00 0.00 0.00 55 1011.0
20260504202804 71 28 0.0 3.5 0.00 0.00 0.00 54 1011.1
20260504202304 72 327 0.9 2.6 0.00 0.00 0.00 56 1010.9
20260504201759 72 14 0.0 2.6 0.00 0.00 0.00 53 1011.0
20260504201256 72 23 1.7 2.6 0.00 0.00 0.00 53 1011.0
20260504200754 72 331 0.9 2.6 0.00 0.00 0.00 53 1010.9
20260504200250 72 8 1.7 5.2 0.00 0.00 0.00 52 1011.0
20260504195746 72 70 0.9 1.7 0.00 0.00 0.00 54 1011.3
20260504195242 72 67 0.9 7.8 0.00 0.00 0.00 52 1011.3
20260504194739 72 355 0.9 2.6 0.00 0.00 0.00 52 1011.1
20260504194236 72 355 0.0 1.7 0.00 0.00 0.00 53 1010.6
20260504193732 72 62 1.7 3.5 0.00 0.00 0.00 52 1010.9
20260504193229 72 280 0.9 1.7 0.00 0.00 0.00 52 1010.6
20260504192728 72 8 0.9 0.9 0.00 0.00 0.00 53 1010.9
20260504192225 72 34 0.0 1.7 0.00 0.00 0.00 55 1011.1
20260504191724 71 123 0.9 1.7 0.00 0.00 0.00 57 1011.2
20260504191220 70 343 0.0 1.7 0.00 0.00 0.00 57 1011.2
20260504190716 70 351 0.0 1.7 0.00 0.00 0.00 56 1011.1
20260504190212 70 19 0.0 2.6 0.00 0.00 0.00 54 1011.1
20260504185709 69 45 0.9 1.7 0.00 0.00 0.00 55 1011.3
20260504185206 69 108 1.7 2.6 0.00 0.00 0.00 55 1011.4
20260504184702 69 57 0.9 1.7 0.00 0.00 0.00 56 1011.3
20260504184157 69 31 2.6 5.2 0.00 0.00 0.00 55 1011.5
20260504183654 69 50 0.9 1.7 0.00 0.00 0.00 57 1011.6
20260504183151 69 300 1.7 1.7 0.00 0.00 0.00 55 1011.6
20260504182648 69 40 0.9 1.7 0.00 0.00 0.00 55 1011.7
20260504182146 70 328 2.6 3.5 0.00 0.00 0.00 54 1011.8
20260504181644 71 320 0.9 7.8 0.00 0.00 0.00 53 1011.7
20260504181141 71 40 0.0 2.6 0.00 0.00 0.00 55 1011.7
20260504180640 71 331 1.7 3.5 0.00 0.00 0.00 53 1011.4
20260504180138 71 62 1.7 5.2 0.00 0.00 0.00 52 1011.6
20260504175635 71 19 0.0 1.7 0.00 0.00 0.00 53 1011.6
20260504175132 72 111 1.7 3.5 0.00 0.00 0.00 51 1011.5
20260504174630 72 15 2.6 6.1 0.00 0.00 0.00 51 1011.8
20260504174126 73 109 1.7 7.8 0.00 0.00 0.00 50 1011.5
20260504173624 73 235 1.7 3.5 0.00 0.00 0.00 51 1011.8
20260504173121 73 141 0.9 2.6 0.00 0.00 0.00 51 1012.0
20260504172617 72 350 0.0 0.9 0.00 0.00 0.00 52 1011.7
20260504172114 72 123 5.2 7.0 0.00 0.00 0.00 50 1011.7
20260504171610 74 69 1.7 8.7 0.00 0.00 0.00 50 1011.7
20260504171108 73 37 0.9 7.0 0.00 0.00 0.00 50 1011.9
20260504170603 73 77 1.7 3.5 0.00 0.00 0.00 49 1011.9
20260504150941 62 117 2.6 3.5 0.00 0.00 0.00 61 1013.3
20260504150438 63 80 0.9 3.5 0.00 0.00 0.00 61 1013.3
20260504140904 60 0 0.0 1.7 0.00 0.00 0.00 67 1014.3
20260504140400 60 249 1.7 3.5 0.00 0.00 0.00 62 1014.0
20260504130325 57 353 0.9 2.6 0.00 0.00 0.00 66 1013.9
20260504120249 52 0 0.9 0.9 0.00 0.00 0.00 70 1014.1
20260504110716 43 2 0.0 0.0 0.00 0.00 0.00 92 1013.8
20260504110212 43 359 0.0 0.0 0.00 0.00 0.00 92 1013.5
20260504100136 43 354 0.0 0.0 0.00 0.00 0.00 91 1014.2
20260504081529 47 359 0.0 0.0 0.00 0.00 0.00 84 1014.7
20260504081025 47 359 0.0 0.0 0.00 0.00 0.00 84 1014.9
20260504080522 47 359 0.0 0.0 0.00 0.00 0.00 84 1014.8
20260504050334 50 348 0.0 0.0 0.00 0.00 0.00 81 1016.2
20260504045832 49 22 0.9 0.9 0.00 0.00 0.00 79 1016.4
20260504045326 49 0 0.0 0.0 0.00 0.00 0.00 79 1016.4
20260504044824 50 5 0.0 0.0 0.00 0.00 0.00 80 1016.5
20260504044321 50 5 0.0 0.0 0.00 0.00 0.00 78 1016.5
20260504043818 50 355 0.0 0.0 0.00 0.00 0.00 78 1016.5
20260504043315 50 5 0.0 0.0 0.00 0.00 0.00 77 1016.4
20260504042813 50 5 0.0 0.0 0.00 0.00 0.00 77 1016.1
20260504042309 50 358 0.0 0.0 0.00 0.00 0.00 77 1016.4
20260504041805 50 358 0.0 0.0 0.00 0.00 0.00 78 1016.3
20260504041301 50 358 0.0 0.0 0.00 0.00 0.00 77 1016.1
20260504040758 50 358 0.0 0.0 0.00 0.00 0.00 76 1016.4
20260504040255 50 358 0.0 0.0 0.00 0.00 0.00 76 1016.3
20260504035751 50 359 0.0 0.0 0.00 0.00 0.00 76 1016.3
20260504035248 50 359 0.0 0.0 0.00 0.00 0.00 75 1016.3
20260504034745 50 359 0.0 0.0 0.00 0.00 0.00 77 1016.4
20260504034243 50 359 0.0 0.0 0.00 0.00 0.00 75 1016.3
20260504033740 50 359 0.0 0.0 0.00 0.00 0.00 76 1016.4
20260504033238 50 358 0.0 0.0 0.00 0.00 0.00 74 1016.6
20260504032734 50 358 0.0 0.0 0.00 0.00 0.00 75 1016.6
20260504032231 50 354 0.0 0.0 0.00 0.00 0.00 73 1016.5
20260504031728 51 354 0.0 0.0 0.00 0.00 0.00 74 1016.7
20260504031226 51 354 0.0 0.0 0.00 0.00 0.00 72 1016.8
20260504030721 51 354 0.0 0.0 0.00 0.00 0.00 72 1016.8
20260504030219 51 354 0.0 0.0 0.00 0.00 0.00 72 1016.8
20260504025715 51 352 0.0 0.0 0.00 0.00 0.00 72 1016.8
20260504025212 51 355 0.0 0.0 0.00 0.00 0.00 70 1017.0
20260504024709 51 355 0.0 0.0 0.00 0.00 0.00 70 1017.1
20260504024205 51 355 0.0 0.0 0.00 0.00 0.00 70 1016.8
20260504023702 51 352 0.0 0.0 0.00 0.00 0.00 68 1016.7
20260504023158 51 350 0.0 0.0 0.00 0.00 0.00 70 1017.1
20260504022654 51 37 0.9 0.9 0.00 0.00 0.00 69 1017.0
20260504022150 51 346 0.0 0.9 0.00 0.00 0.00 70 1017.1
20260504021649 51 343 0.0 0.9 0.00 0.00 0.00 68 1017.0
20260504021145 51 2 0.0 0.0 0.00 0.00 0.00 66 1017.1
20260504020642 52 2 0.0 0.0 0.00 0.00 0.00 64 1016.7
20260504020138 52 2 0.0 0.0 0.00 0.00 0.00 63 1016.7
20260504015635 52 2 0.0 0.0 0.00 0.00 0.00 64 1016.7
20260504015131 52 2 0.0 0.0 0.00 0.00 0.00 62 1016.6
20260504014627 52 2 0.0 0.0 0.00 0.00 0.00 61 1016.8
20260504014124 53 2 0.0 0.0 0.00 0.00 0.00 60 1016.7
20260504013622 53 2 0.0 0.0 0.00 0.00 0.00 61 1016.4
20260504013119 53 2 0.0 0.0 0.00 0.00 0.00 61 1016.5
20260504012616 53 2 0.0 0.0 0.00 0.00 0.00 61 1016.5
20260504012114 54 2 0.0 0.0 0.00 0.00 0.00 60 1016.4
20260504011610 54 2 0.0 0.0 0.00 0.00 0.00 58 1016.3
20260504011107 54 2 0.0 0.0 0.00 0.00 0.00 58 1016.2
20260504010603 55 3 0.0 0.0 0.00 0.00 0.00 56 1016.3
20260504010059 55 3 0.0 0.0 0.00 0.00 0.00 60 1016.3
20260504005555 55 3 0.0 0.0 0.00 0.00 0.00 54 1016.5
20260504005053 55 3 0.0 0.0 0.00 0.00 0.00 53 1016.3
20260504004551 56 3 0.0 0.0 0.00 0.00 0.00 59 1016.6
20260504004047 56 3 0.0 0.0 0.00 0.00 0.00 57 1016.5
20260504003543 56 3 0.0 0.0 0.00 0.00 0.00 54 1016.6
20260504003040 57 2 0.0 0.0 0.00 0.00 0.00 48 1016.5
20260504002537 57 6 0.0 0.0 0.00 0.00 0.00 49 1016.6
20260504002035 58 30 0.0 0.9 0.00 0.00 0.00 45 1016.7
20260504001533 57 34 0.0 0.0 0.00 0.00 0.00 45 1016.7
20260504001028 58 329 0.9 2.6 0.00 0.00 0.00 43 1017.0
20260504000525 58 36 0.9 1.7 0.00 0.00 0.00 43 1016.8
20260504000022 59 16 0.0 0.9 0.00 0.00 0.00 41 1017.0
20260503235520 59 1 0.0 0.0 0.00 0.00 0.00 41 1016.5
20260503235012 59 9 0.0 0.0 0.00 0.00 0.00 41 1016.7
20260503234509 59 308 0.9 0.9 0.00 0.00 0.00 43 1016.6
20260503234008 59 116 0.9 1.7 0.00 0.00 0.00 41 1016.5